TimePDT,TemperatureF,Dew PointF,Humidity,Sea Level PressureIn,VisibilityMPH,Wind Direction,Wind SpeedMPH,Gust SpeedMPH,PrecipitationIn,Events,Conditions,WindDirDegrees,DateUTC
12:56 AM,68.0,59.0,73,29.87,10.0,Calm,Calm,-,N/A,,Clear,0,2013-06-30 07:56:00
1:56 AM,68.0,60.1,76,29.86,10.0,Calm,Calm,-,N/A,,Clear,0,2013-06-30 08:56:00
2:56 AM,66.9,60.1,79,29.85,10.0,NW,3.5,-,N/A,,Clear,320,2013-06-30 09:56:00
3:56 AM,66.9,60.1,79,29.85,10.0,Calm,Calm,-,N/A,,Clear,0,2013-06-30 10:56:00
4:56 AM,64.9,59.0,81,29.85,10.0,Calm,Calm,-,N/A,,Clear,0,2013-06-30 11:56:00
5:56 AM,63.0,57.9,84,29.86,10.0,Calm,Calm,-,N/A,,Clear,0,2013-06-30 12:56:00
6:56 AM,66.9,59.0,76,29.86,10.0,Calm,Calm,-,N/A,,Clear,0,2013-06-30 13:56:00
7:56 AM,68.0,60.1,76,29.87,10.0,NNW,4.6,-,N/A,,Clear,340,2013-06-30 14:56:00
8:56 AM,72.0,60.1,66,29.88,10.0,North,3.5,-,N/A,,Clear,360,2013-06-30 15:56:00
9:56 AM,75.0,60.1,60,29.87,10.0,NNW,5.8,-,N/A,,Clear,340,2013-06-30 16:56:00
10:56 AM,77.0,57.9,52,29.86,10.0,North,4.6,-,N/A,,Clear,350,2013-06-30 17:56:00
11:56 AM,79.0,59.0,50,29.86,10.0,North,9.2,-,N/A,,Clear,350,2013-06-30 18:56:00
12:56 PM,79.0,59.0,50,29.84,10.0,NNW,11.5,-,N/A,,Clear,340,2013-06-30 19:56:00
1:56 PM,79.0,59.0,50,29.84,10.0,NNW,12.7,-,N/A,,Clear,340,2013-06-30 20:56:00
2:56 PM,82.0,59.0,45,29.83,10.0,North,9.2,-,N/A,,Clear,350,2013-06-30 21:56:00
3:56 PM,81.0,57.9,45,29.82,10.0,NNW,10.4,-,N/A,,Clear,340,2013-06-30 22:56:00
4:56 PM,78.1,59.0,52,29.81,10.0,NNW,15.0,-,N/A,,Clear,340,2013-06-30 23:56:00
5:56 PM,75.9,60.1,58,29.81,10.0,NNW,15.0,-,N/A,,Clear,340,2013-07-01 00:56:00
6:56 PM,73.0,60.1,64,29.80,10.0,NNW,16.1,-,N/A,,Clear,340,2013-07-01 01:56:00
7:56 PM,70.0,57.9,65,29.81,10.0,NNW,12.7,-,N/A,,Clear,340,2013-07-01 02:56:00
8:56 PM,69.1,59.0,70,29.81,10.0,North,11.5,-,N/A,,Clear,350,2013-07-01 03:56:00
9:56 PM,68.0,59.0,73,29.83,10.0,NNW,9.2,-,N/A,,Clear,340,2013-07-01 04:56:00
10:56 PM,66.9,57.9,73,29.83,10.0,North,9.2,-,N/A,,Clear,350,2013-07-01 05:56:00
11:56 PM,64.9,57.9,78,29.84,10.0,North,5.8,-,N/A,,Clear,360,2013-07-01 06:56:00